Wind_Speed
69 78 85 94 103 109 121 118 105 95 84 74 65 49 35 18 10 4 9 20 31 37 49 66 74 83 93 96 103 98 90 92 103 109 103 98 92 88 79 77 76 74 75 76 82 88 86
69 77 85 94 104 111 119 128 115 109 91 79 68 56 38 25 15 7 6 16 27 42 50 60 71 82 94 101 105 93 84 81 81 97 102 99 90 88 81 80 77 76 76 75 76 77 81
69 78 84 93 102 111 116 126 125 114 103 87 72 60 49 35 26 17 9 6 14 23 41 53 63 74 88 96 98 87 83 79 74 82 99 97 92 89 89 85 81 80 77 74 72 72 73
69 77 81 91 100 109 113 119 127 121 110 94 77 63 60 49 36 30 22 12 10 20 30 43 55 61 71 82 84 78 81 77 72 72 86 94 93 91 87 86 84 82 80 77 74 73 72
68 73 78 88 97 105 111 119 124 130 120 111 86 73 63 61 41 38 31 23 18 17 25 38 49 52 61 65 65 61 74 73 68 62 68 84 90 87 88 86 85 82 80 79 78 76 75
67 72 74 84 94 100 108 117 123 128 133 115 107 84 72 64 53 41 36 30 28 21 20 28 38 38 43 48 54 57 66 70 68 62 58 67 79 84 85 84 82 83 82 80 79 77 79
64 69 71 80 88 96 100 111 114 124 130 129 116 99 82 70 62 46 38 39 29 27 21 22 25 27 31 36 43 55 70 68 65 63 57 57 64 70 75 80 81 82 83 82 79 81 81
62 63 70 75 83 92 94 102 113 117 123 127 128 113 93 80 66 50 38 40 33 23 21 18 19 21 22 27 37 50 65 64 62 59 52 52 54 57 63 72 79 81 81 81 82 84 82
59 63 66 71 76 87 89 94 101 109 116 122 125 126 109 89 80 59 49 41 35 29 25 18 12 11 14 18 28 43 54 61 61 59 56 55 49 47 47 50 57 66 73 78 80 82 82
55 61 61 68 71 81 83 88 95 102 109 116 121 125 121 108 87 76 63 51 40 30 23 19 16 11 9 12 22 28 39 54 60 59 54 49 46 44 46 45 45 45 44 48 57 66 73
54 57 56 60 65 73 79 83 89 93 101 107 114 116 122 116 107 91 73 60 50 41 32 21 17 16 15 13 15 22 30 44 54 57 56 51 49 48 48 46 45 44 46 46 45 46 50
51 56 56 55 62 65 71 77 83 85 92 99 105 109 116 117 116 105 101 79 65 53 39 32 28 21 18 19 15 14 18 31 47 53 55 56 54 52 49 45 44 44 43 45 46 49 49
49 53 55 54 57 62 64 68 76 79 81 91 95 100 106 110 111 113 112 101 90 71 63 50 37 32 26 21 19 17 15 17 27 41 46 47 48 47 45 42 40 39 41 43 47 50 50
46 51 50 52 57 58 60 62 66 73 74 84 87 92 96 101 105 104 113 109 102 95 85 75 61 48 36 29 24 19 15 12 15 25 32 38 39 37 36 36 37 40 44 48 48 49 51
44 46 49 46 51 55 57 57 62 63 66 74 79 83 89 92 95 98 107 104 104 103 97 91 83 72 58 44 35 26 19 13 9 11 16 22 27 31 33 35 37 41 43 45 48 46 45
40 40 44 44 48 50 50 51 55 57 55 65 72 75 80 83 87 91 94 95 97 99 98 98 93 85 80 71 60 45 33 24 17 10 4 7 12 18 23 26 28 30 31 31 31 31 27
32 34 39 40 43 50 43 47 51 54 51 56 64 70 72 75 80 82 81 86 90 92 93 92 92 93 90 86 78 73 67 54 41 29 19 13 8 3 2 5 5 5 4 2 3 5 7
28 29 33 38 36 44 50 40 46 48 47 52 57 63 64 69 72 74 75 78 80 83 84 86 87 83 85 86 87 85 79 71 64 56 50 44 37 28 25 20 16 9 6 7 7 7 5
25 29 28 32 29 33 45 48 40 40 46 51 50 56 60 61 65 67 68 71 73 74 75 76 77 79 77 79 80 81 77 78 74 68 61 55 51 45 41 38 35 32 28 23 17 15 15
24 26 27 28 31 27 39 41 44 38 40 46 46 51 54 54 60 61 63 64 66 67 68 69 69 70 71 71 72 74 72 71 72 71 70 65 57 53 48 43 40 36 32 28 24 22 20
27 28 26 25 27 28 34 38 40 41 39 40 43 47 47 48 48 55 57 59 60 59 61 61 62 62 62 63 65 65 66 66 66 65 65 66 63 60 55 49 44 39 36 34 32 28 24
26 26 25 24 25 27 32 36 38 37 38 40 39 41 43 45 44 44 54 52 55 55 55 55 54 59 57 56 54 55 56 58 58 59 60 59 58 59 59 56 55 49 42 40 36 32 28
30 31 27 29 27 25 27 31 31 36 35 35 38 37 40 44 46 42 45 48 51 48 49 51 49 52 54 53 54 53 50 50 50 51 54 54 55 54 52 52 53 52 52 51 43 38 36
37 37 38 36 37 37 38 41 40 38 43 42 38 38 38 39 42 43 44 45 46 45 45 46 47 48 47 50 49 49 50 48 47 48 48 48 50 50 51 51 50 48 50 49 49 48 44
42 40 41 44 44 45 46 47 47 44 45 45 45 41 39 40 40 42 47 45 41 40 43 43 47 40 43 43 43 41 43 46 48 46 46 49 49 49 49 51 47 47 49 51 52 51 49
52 55 53 50 51 51 51 51 51 53 49 48 43 41 42 43 42 44 44 44 45 43 39 39 39 44 38 40 43 43 43 44 45 45 46 48 48 49 50 49 44 46 48 51 54 53 52
61 57 57 60 58 58 57 55 56 57 55 54 58 58 55 53 53 53 48 49 49 47 47 40 36 38 35 39 41 41 42 42 43 45 46 45 46 45 45 46 48 46 47 51 51 52 50
66 68 67 66 63 65 64 64 69 70 68 63 62 61 61 54 59 62 55 55 47 50 50 48 43 40 36 34 36 37 39 40 42 42 43 44 44 49 50 44 47 49 50 52 53 55 55
77 74 70 69 70 71 72 74 72 70 69 69 71 68 70 68 67 68 65 60 57 54 52 50 47 45 41 37 38 37 38 42 44 46 47 42 39 44 49 48 49 48 50 52 53 55 57
Wind_Direction
2 2 6 6 9 10 16 17 16 18 20 21 17 13 7 12 14 116 195 197 193 191 198 201 204 207 216 217 220 214 215 218 221 222 225 223 222 223 226 230 232 234 236 239 241 241 242
3 4 8 8 11 11 14 21 21 22 22 23 23 20 15 20 32 50 155 200 195 190 194 199 201 204 210 216 219 212 213 219 223 222 222 224 223 225 227 228 230 232 234 237 240 240 242
5 7 8 9 12 15 15 22 25 23 25 26 26 25 27 25 35 49 68 158 177 195 205 196 199 206 209 214 220 210 209 216 221 220 219 220 224 225 225 227 228 233 235 238 242 244 244
4 8 10 10 12 16 15 20 26 27 27 29 30 31 35 32 39 45 50 73 126 164 196 199 200 204 211 215 219 212 204 213 218 220 220 220 223 225 229 230 230 232 235 237 241 245 246
3 10 12 11 12 15 17 18 23 27 28 30 30 31 30 33 37 53 56 76 94 139 179 189 201 203 208 215 218 215 197 210 217 220 220 222 223 225 228 230 232 234 236 237 240 244 247
7 12 13 12 13 14 15 18 19 24 28 29 30 32 31 34 39 50 61 72 90 111 155 180 190 204 211 214 215 210 195 206 214 218 221 223 224 227 228 230 232 234 237 239 240 243 245
9 12 13 15 13 15 15 18 20 20 27 30 31 32 34 33 36 51 61 64 79 102 123 150 178 198 207 219 214 207 199 203 211 216 222 225 225 227 231 232 233 236 239 241 242 244 246
11 13 13 14 15 17 16 17 19 20 21 31 32 34 35 37 37 45 56 69 67 83 108 132 163 186 200 215 214 210 200 200 211 215 221 222 224 228 233 235 235 236 239 241 242 245 248
9 14 13 13 15 18 17 17 20 21 21 23 34 34 37 39 41 43 49 59 71 73 79 91 114 153 176 190 201 208 205 199 209 216 219 221 223 225 228 233 237 241 243 244 245 248 250
12 13 14 16 16 17 16 18 21 20 22 22 26 35 37 41 43 44 47 54 55 64 71 86 108 132 157 180 189 196 203 202 208 216 220 223 225 229 231 232 234 237 242 246 249 250 253
10 14 18 14 17 17 18 17 20 21 22 23 24 28 37 40 45 46 47 45 49 54 54 69 83 97 134 157 182 192 194 193 206 214 218 221 224 227 229 233 237 239 244 246 248 253 255
6 12 17 17 18 16 18 16 19 20 21 23 24 25 29 35 39 45 48 49 48 47 45 58 75 76 95 110 133 161 186 193 198 206 213 219 222 227 230 235 240 244 251 254 255 258 260
4 9 14 17 17 17 17 19 17 17 20 22 24 26 27 29 35 41 46 48 49 52 50 51 60 72 71 80 95 111 142 175 194 204 211 216 222 226 232 240 246 251 251 253 256 257 258
3 6 10 13 15 15 18 19 19 15 18 20 24 23 28 28 29 34 41 44 50 51 53 55 53 58 64 70 77 85 103 139 173 197 207 216 224 233 239 244 246 248 252 256 256 257 261
358 5 7 14 15 15 16 16 19 17 15 19 22 23 25 27 27 28 35 35 44 50 53 54 57 57 56 56 60 69 81 97 134 179 202 215 226 234 242 247 250 254 258 259 260 262 263
1 8 2 9 16 16 16 14 15 20 18 16 18 22 23 24 25 26 35 30 34 42 46 53 56 58 61 62 60 58 58 60 63 73 127 215 228 238 244 250 255 258 261 264 265 266 266
2 7 5 4 8 17 15 16 13 16 18 15 17 18 20 22 23 25 30 28 29 32 37 44 50 54 58 60 60 62 63 65 65 66 66 65 65 74 226 238 250 258 272 270 238 197 192
349 3 3 360 3 10 14 18 10 9 17 12 14 17 18 19 20 23 23 24 27 30 34 37 40 47 51 52 55 57 60 62 62 63 65 67 67 66 62 59 53 59 102 120 115 119 161
342 350 360 356 360 3 6 11 13 14 11 12 12 15 15 16 17 18 21 22 24 28 32 34 37 40 44 50 52 53 57 58 59 58 60 62 61 61 62 63 63 61 58 52 39 25 23
329 338 350 353 3 351 2 5 8 5 11 5 8 8 9 12 13 16 16 19 21 25 27 30 34 35 38 40 44 47 49 52 53 54 55 55 56 57 56 55 55 52 46 44 38 34 29
321 329 342 350 357 360 357 359 358 0 359 360 358 359 5 8 7 9 11 12 15 20 21 24 27 32 35 38 39 40 41 43 43 47 49 49 50 51 49 50 49 50 50 48 41 36 34
314 317 325 335 338 343 352 349 350 352 350 355 354 356 354 359 3 2 3 7 7 10 14 17 21 21 25 29 35 40 39 38 40 41 42 43 44 42 41 40 40 40 38 38 39 35 27
299 306 308 311 320 333 334 331 341 344 340 341 344 346 346 347 351 357 355 356 358 4 7 9 12 13 17 20 22 25 32 34 35 33 33 34 32 33 34 32 33 32 29 30 31 26 22
287 296 302 304 309 311 318 321 329 330 329 333 335 330 336 343 345 345 347 348 350 353 356 0 2 3 8 9 14 15 16 20 23 23 23 24 24 23 22 21 21 20 19 17 17 18 18
282 285 288 292 298 302 308 313 318 321 324 328 329 332 326 322 331 337 340 341 339 342 344 348 350 355 357 360 2 7 8 6 6 8 11 11 11 14 13 12 14 15 13 10 6 3 4
278 284 285 284 289 293 296 304 309 311 314 317 319 320 319 318 315 316 323 327 332 332 332 336 339 342 343 346 346 348 350 351 354 355 355 357 358 358 1 2 8 7 7 4 3 360 357
278 277 279 286 286 290 292 297 301 305 307 307 311 314 316 319 317 318 313 312 316 321 324 323 325 327 330 331 334 334 336 339 341 341 342 345 348 350 352 353 353 356 356 357 358 357 352
272 275 276 280 279 284 288 289 295 300 301 303 306 308 311 311 314 314 317 315 310 309 315 315 314 317 319 318 322 321 324 327 328 330 332 334 339 339 337 345 342 345 347 348 350 350 349
274 274 276 277 279 280 283 287 290 294 297 298 299 301 304 305 305 312 311 316 312 303 310 303 306 312 309 310 313 313 315 318 318 318 320 322 332 332 331 332 336 336 338 339 340 342 344
Height
10714 10697 10674 10652 10626 10594 10557 10516 10480 10449 10425 10406 10392 10379 10369 10362 10354 10353 10355 10358 10365 10377 10391 10405 10417 10432 10441 10454 10464 10490 10513 10531 10551 10570 10588 10603 10617 10631 10643 10653 10661 10671 10676 10681 10687 10696 10705
10711 10694 10672 10651 10626 10595 10563 10527 10488 10461 10434 10414 10400 10387 10376 10366 10359 10356 10357 10358 10363 10369 10376 10395 10411 10423 10430 10441 10452 10490 10516 10530 10547 10562 10579 10595 10614 10624 10635 10639 10651 10656 10660 10670 10677 10686 10692
10710 10692 10671 10651 10627 10599 10570 10541 10508 10476 10448 10425 10410 10399 10387 10376 10368 10363 10362 10364 10368 10376 10379 10390 10408 10418 10426 10437 10447 10480 10508 10525 10538 10549 10564 10582 10596 10609 10615 10624 10638 10647 10655 10663 10669 10675 10681
10708 10691 10673 10651 10629 10605 10579 10552 10524 10495 10465 10442 10424 10411 10399 10388 10378 10371 10370 10370 10372 10379 10385 10390 10402 10418 10428 10437 10449 10474 10505 10518 10531 10545 10559 10574 10587 10598 10610 10621 10629 10637 10645 10655 10661 10666 10671
10707 10692 10674 10654 10632 10610 10587 10563 10538 10510 10479 10455 10436 10418 10408 10396 10387 10379 10377 10375 10378 10382 10389 10401 10407 10419 10429 10439 10458 10477 10501 10516 10529 10543 10554 10566 10578 10589 10600 10610 10621 10630 10638 10646 10651 10658 10662
10708 10693 10677 10658 10637 10617 10595 10572 10547 10522 10496 10469 10449 10430 10415 10404 10396 10389 10386 10385 10383 10389 10396 10406 10418 10428 10437 10449 10462 10472 10501 10514 10527 10539 10549 10560 10571 10581 10593 10604 10613 10620 10626 10635 10643 10649 10649
10710 10695 10680 10663 10644 10625 10605 10585 10563 10539 10516 10492 10467 10445 10430 10415 10408 10403 10401 10396 10397 10399 10410 10420 10431 10439 10446 10452 10462 10475 10489 10513 10525 10535 10547 10558 10568 10578 10586 10594 10604 10611 10619 10628 10637 10634 10638
10712 10697 10684 10670 10653 10636 10618 10599 10579 10557 10536 10516 10492 10467 10448 10436 10424 10418 10416 10410 10415 10417 10420 10429 10438 10444 10451 10457 10463 10471 10487 10511 10522 10534 10544 10552 10560 10569 10579 10587 10594 10602 10610 10617 10620 10622 10628
10715 10701 10689 10675 10660 10646 10630 10612 10596 10577 10558 10538 10518 10496 10472 10453 10442 10437 10429 10429 10431 10434 10434 10438 10441 10446 10453 10457 10463 10471 10486 10505 10517 10527 10535 10544 10556 10564 10573 10581 10589 10595 10600 10605 10610 10612 10619
10718 10705 10693 10681 10667 10654 10640 10625 10610 10592 10576 10557 10539 10521 10501 10481 10463 10455 10449 10445 10445 10445 10446 10446 10448 10451 10454 10459 10464 10471 10486 10502 10513 10523 10536 10546 10554 10562 10569 10576 10582 10587 10594 10598 10601 10606 10609
10720 10710 10698 10686 10675 10662 10650 10636 10622 10607 10592 10577 10560 10544 10528 10512 10493 10478 10468 10465 10460 10458 10458 10458 10456 10456 10458 10463 10467 10474 10483 10495 10508 10521 10531 10540 10548 10555 10562 10568 10574 10581 10585 10590 10593 10597 10598
10721 10712 10702 10692 10682 10671 10659 10646 10634 10620 10608 10595 10582 10564 10548 10538 10523 10506 10492 10482 10475 10470 10471 10466 10463 10464 10466 10468 10472 10478 10485 10494 10502 10513 10524 10532 10541 10549 10556 10563 10569 10576 10580 10583 10585 10587 10587
10722 10714 10706 10698 10688 10680 10669 10657 10645 10633 10623 10611 10599 10586 10570 10558 10548 10535 10517 10507 10494 10489 10483 10477 10474 10474 10476 10478 10480 10484 10490 10497 10506 10514 10523 10531 10539 10547 10554 10560 10566 10571 10572 10573 10575 10575 10577
10724 10717 10710 10702 10694 10685 10677 10668 10657 10645 10634 10625 10613 10605 10591 10580 10570 10562 10544 10534 10528 10510 10499 10491 10490 10487 10489 10490 10491 10494 10499 10505 10510 10516 10524 10530 10539 10545 10551 10555 10558 10560 10561 10563 10564 10565 10566
10725 10720 10713 10706 10699 10691 10683 10675 10667 10657 10647 10639 10631 10620 10604 10599 10591 10578 10552 10565 10553 10540 10525 10516 10508 10503 10505 10505 10506 10507 10509 10512 10516 10520 10526 10532 10537 10542 10547 10550 10553 10554 10555 10556 10555 10555 10553
10726 10721 10715 10709 10703 10696 10688 10682 10674 10667 10657 10649 10641 10631 10622 10616 10608 10597 10578 10582 10569 10563 10556 10542 10535 10529 10526 10522 10519 10519 10520 10521 10524 10527 10531 10534 10537 10540 10543 10545 10547 10547 10547 10547 10546 10546 10547
10726 10722 10717 10711 10706 10701 10693 10687 10681 10674 10667 10658 10652 10643 10636 10627 10621 10612 10605 10599 10588 10579 10571 10568 10564 10557 10551 10544 10539 10537 10536 10535 10534 10534 10535 10538 10540 10542 10542 10543 10544 10544 10544 10543 10543 10542 10541
10724 10721 10717 10713 10707 10703 10698 10692 10686 10679 10674 10667 10660 10654 10647 10639 10633 10625 10620 10612 10605 10598 10590 10583 10578 10574 10570 10565 10559 10556 10553 10550 10548 10547 10547 10548 10548 10549 10549 10550 10550 10549 10547 10545 10544 10544 10544
10722 10719 10715 10713 10709 10704 10700 10696 10691 10685 10678 10673 10666 10661 10656 10650 10643 10637 10630 10624 10617 10611 10605 10600 10595 10589 10585 10581 10576 10573 10570 10568 10565 10563 10561 10559 10558 10556 10555 10554 10552 10552 10551 10551 10550 10549 10548
10718 10716 10713 10710 10707 10704 10701 10697 10694 10690 10684 10678 10672 10667 10662 10657 10652 10646 10641 10635 10629 10623 10618 10613 10608 10604 10599 10594 10589 10585 10583 10580 10577 10574 10571 10568 10566 10565 10563 10560 10558 10556 10554 10552 10551 10549 10547
10713 10711 10709 10707 10705 10703 10700 10696 10694 10692 10688 10683 10677 10671 10667 10663 10657 10653 10648 10644 10639 10634 10629 10623 10619 10613 10608 10604 10599 10594 10592 10589 10587 10584 10580 10578 10575 10573 10571 10568 10565 10563 10560 10557 10555 10552 10550
10708 10708 10705 10703 10701 10699 10697 10694 10692 10689 10687 10684 10681 10676 10670 10667 10662 10658 10654 10650 10646 10641 10637 10633 10627 10621 10617 10613 10608 10603 10599 10596 10594 10591 10588 10586 10583 10581 10578 10575 10572 10568 10565 10561 10558 10554 10551
10703 10702 10700 10698 10698 10696 10695 10693 10690 10687 10683 10682 10681 10678 10674 10670 10666 10661 10658 10654 10651 10647 10642 10637 10632 10628 10623 10619 10615 10611 10606 10603 10600 10596 10593 10591 10588 10585 10583 10580 10576 10573 10569 10566 10562 10557 10552
10695 10695 10694 10693 10691 10691 10690 10688 10687 10683 10681 10678 10677 10677 10675 10671 10667 10664 10659 10656 10653 10649 10645 10641 10638 10633 10627 10622 10618 10614 10610 10607 10604 10602 10598 10594 10591 10587 10584 10580 10576 10573 10569 10566 10562 10557 10552
10687 10687 10686 10685 10685 10684 10682 10681 10680 10679 10676 10674 10670 10670 10670 10668 10666 10663 10660 10656 10652 10649 10645 10641 10638 10634 10630 10625 10621 10618 10613 10609 10605 10602 10599 10595 10591 10589 10584 10580 10577 10573 10568 10564 10558 10555 10550
10675 10676 10676 10675 10675 10674 10674 10673 10672 10671 10670 10669 10667 10664 10663 10661 10661 10660 10657 10655 10652 10648 10644 10640 10636 10633 10629 10626 10622 10618 10614 10609 10605 10601 10597 10595 10591 10586 10582 10578 10575 10569 10565 10560 10555 10550 10545
10663 10663 10663 10665 10665 10663 10663 10663 10662 10663 10662 10661 10661 10658 10656 10654 10652 10651 10650 10649 10646 10643 10641 10638 10635 10631 10627 10622 10619 10615 10612 10608 10604 10599 10594 10592 10588 10584 10580 10573 10569 10566 10561 10556 10550 10545 10539
10650 10651 10651 10652 10652 10652 10651 10651 10651 10651 10651 10652 10651 10649 10648 10647 10646 10642 10641 10638 10637 10636 10634 10632 10628 10626 10622 10618 10614 10610 10605 10601 10597 10594 10590 10586 10582 10577 10573 10572 10564 10557 10553 10548 10544 10538 10533
10634 10638 10638 10638 10638 10638 10638 10637 10638 10638 10637 10638 10639 10638 10636 10635 10635 10633 10631 10629 10626 10624 10623 10623 10620 10617 10614 10611 10608 10604 10601 10596 10591 10585 10581 10580 10578 10572 10563 10561 10558 10552 10547 10541 10535 10531 10525